This is the latest recevied weather packets stored in our database for station/object OE6ACM-14. If no packets are shown the sender has not sent any weather packets the latest 10 day(s).
| Time | Temp. | Humidity | Pressure | Rain* | Wind** | Luminosity | Snow |
|---|---|---|---|---|---|---|---|
| 1787766688 | 20° C | 65% | 929.9 hPa | - | - | - | - |
| 1787766378 | 20° C | 64% | 929.8 hPa | - | - | - | - |
| 1787766078 | 20° C | 64% | 929.6 hPa | - | - | - | - |
| 1787765778 | 20.56° C | 63% | 929.5 hPa | - | - | - | - |
| 1787765478 | 21.11° C | 61% | 929.5 hPa | - | - | - | - |
| 1787765178 | 21.11° C | 60% | 929.5 hPa | - | - | - | - |
| 1787764878 | 21.67° C | 59% | 929.4 hPa | - | - | - | - |
| 1787764578 | 21.67° C | 58% | 929.3 hPa | - | - | - | - |
| 1787764278 | 22.22° C | 58% | 929.3 hPa | - | - | - | - |
| 1787763978 | 22.22° C | 55% | 929.3 hPa | - | - | - | - |
| 1787763678 | 22.78° C | 54% | 929.2 hPa | - | - | - | - |
| 1787763378 | 24.44° C | 50% | 929.1 hPa | - | - | - | - |
| 1787763078 | 25.56° C | 48% | 929.1 hPa | - | - | - | - |
| 1787762778 | 25.56° C | 46% | 929.1 hPa | - | - | - | - |
| 1787762478 | 25.56° C | 45% | 929.1 hPa | - | - | - | - |
| 1787762178 | 25.56° C | 48% | 929.1 hPa | - | - | - | - |
| 1787761878 | 26.67° C | 45% | 929.1 hPa | - | - | - | - |
| 1787761578 | 27.22° C | 42% | 929.1 hPa | - | - | - | - |
| 1787761278 | 27.22° C | 43% | 929 hPa | - | - | - | - |
| 1787760978 | 27.22° C | 45% | 929 hPa | - | - | - | - |
| 1787760678 | 27.78° C | 43% | 929.1 hPa | - | - | - | - |
| 1787760378 | 28.33° C | 43% | 929.1 hPa | - | - | - | - |
| 1787760090 | 27.78° C | 39% | 929.1 hPa | - | - | - | - |
| 1787759778 | 28.33° C | 38% | 929.1 hPa | - | - | - | - |
| 1787759478 | 28.89° C | 39% | 929.2 hPa | - | - | - | - |
* Rain since midnight (hover to see other rain measurements)
** Current wind speed in m/s (hover to see current wind gust speed)